Temp
-7 -6 -7 -9 -7 -7 -7 -8 -8 -7 -8 -8 -8 -8 -7 -7 -7 -8 -8 -8 -8 -8 -8 -8 -8 -8 -8 -8 -8 -8 -7 -8 -7 -7 -7 -7 -6 -6 -7 -6 -6 -6 -7 -6
-7 -6 -8 -7 -7 -7 -8 -8 -9 -8 -8 -8 -9 -7 -7 -7 -7 -7 -7 -8 -8 -8 -8 -8 -8 -8 -8 -8 -8 -8 -8 -7 -7 -7 -7 -7 -7 -7 -7 -7 -6 -6 -6 -6
-7 -7 -7 -7 -8 -8 -9 -9 -9 -9 -9 -8 -8 -8 -7 -7 -7 -7 -8 -7 -8 -8 -8 -8 -8 -8 -7 -8 -8 -8 -8 -8 -8 -7 -7 -7 -7 -7 -7 -6 -6 -6 -6 -6
-6 -7 -7 -8 -8 -8 -9 -9 -9 -9 -9 -8 -8 -8 -7 -7 -7 -7 -7 -7 -7 -8 -8 -8 -8 -8 -8 -8 -8 -8 -7 -7 -7 -7 -7 -7 -7 -7 -7 -6 -6 -6 -6 -6
-7 -7 -7 -7 -8 -8 -9 -8 -9 -9 -9 -8 -8 -8 -7 -7 -7 -8 -8 -7 -8 -8 -8 -8 -8 -8 -8 -8 -7 -7 -8 -8 -7 -7 -7 -6 -7 -7 -6 -7 -7 -6 -6 -6
-7 -7 -7 -8 -8 -8 -8 -8 -8 -9 -9 -8 -8 -8 -8 -8 -8 -8 -8 -7 -7 -8 -8 -8 -8 -8 -8 -8 -8 -8 -8 -8 -7 -7 -7 -7 -7 -7 -6 -6 -7 -6 -7 -7
-7 -7 -8 -8 -8 -8 -8 -9 -8 -8 -8 -8 -8 -8 -8 -8 -8 -8 -8 -7 -7 -8 -8 -8 -8 -7 -8 -8 -8 -8 -8 -8 -7 -7 -6 -6 -6 -7 -7 -6 -7 -7 -7 -7
-8 -9 -8 -8 -9 -9 -9 -9 -8 -8 -7 -8 -8 -8 -8 -8 -8 -8 -7 -7 -7 -8 -8 -8 -8 -8 -7 -7 -7 -8 -8 -8 -7 -7 -6 -5 -6 -6 -6 -6 -7 -7 -7 -7
-9 -9 -9 -9 -9 -9 -8 -8 -8 -8 -8 -8 -8 -8 -7 -8 -8 -8 -7 -7 -7 -8 -8 -8 -7 -7 -8 -8 -8 -8 -8 -8 -7 -7 -5 -5 -6 -6 -7 -7 -8 -7 -7 -7
-8 -9 -9 -9 -9 -9 -9 -9 -8 -8 -8 -8 -8 -8 -8 -8 -8 -8 -7 -7 -7 -7 -8 -7 -8 -8 -8 -8 -8 -8 -8 -8 -7 -6 -6 -5 -5 -6 -6 -7 -8 -8 -8 -7
-9 -9 -9 -9 -9 -9 -9 -9 -9 -8 -8 -8 -7 -8 -8 -8 -7 -7 -7 -7 -7 -7 -7 -7 -7 -8 -8 -8 -8 -8 -8 -7 -7 -7 -7 -7 -6 -6 -7 -8 -8 -8 -7 -7
-9 -9 -9 -9 -9 -9 -9 -9 -9 -8 -8 -9 -8 -8 -8 -8 -8 -7 -7 -7 -7 -7 -7 -7 -8 -8 -8 -8 -8 -8 -7 -7 -7 -7 -7 -7 -7 -7 -8 -8 -8 -8 -8 -7
-10 -9 -9 -9 -9 -9 -9 -8 -8 -8 -9 -9 -9 -8 -9 -8 -7 -7 -7 -7 -7 -7 -8 -8 -8 -8 -8 -8 -8 -8 -8 -7 -8 -8 -8 -8 -8 -8 -8 -8 -8 -9 -8 -7
-10 -9 -9 -8 -9 -9 -9 -9 -8 -8 -9 -9 -9 -9 -8 -7 -7 -8 -8 -7 -7 -7 -8 -8 -8 -8 -8 -8 -8 -8 -8 -8 -7 -7 -7 -8 -8 -8 -8 -8 -8 -8 -7 -7
-10 -9 -10 -9 -9 -9 -9 -9 -8 -8 -8 -8 -9 -8 -8 -7 -8 -8 -8 -8 -8 -8 -8 -8 -8 -8 -8 -8 -8 -9 -8 -8 -8 -8 -8 -7 -8 -7 -8 -7 -7 -7 -7 -8
-9 -9 -10 -10 -9 -9 -9 -9 -9 -8 -8 -8 -8 -8 -8 -8 -8 -8 -8 -8 -8 -8 -8 -8 -8 -8 -9 -9 -9 -9 -9 -8 -8 -8 -8 -8 -8 -8 -7 -7 -7 -7 -7 -8
-10 -10 -9 -10 -9 -9 -8 -9 -9 -8 -8 -8 -8 -8 -8 -8 -8 -8 -8 -8 -8 -8 -8 -8 -8 -9 -9 -9 -9 -9 -9 -9 -8 -8 -8 -8 -8 -8 -8 -8 -8 -8 -8 -7
-10 -10 -10 -10 -9 -9 -10 -8 -9 -9 -8 -8 -8 -8 -8 -8 -8 -8 -8 -8 -8 -8 -8 -8 -8 -8 -8 -9 -8 -8 -8 -8 -8 -8 -8 -8 -8 -8 -8 -8 -7 -7 -7 -7
-11 -10 -10 -9 -10 -10 -8 -8 -9 -8 -9 -8 -8 -8 -8 -8 -8 -8 -8 -8 -8 -8 -8 -8 -8 -8 -8 -8 -8 -8 -8 -8 -8 -7 -7 -7 -7 -7 -7 -8 -8 -7 -7 -7
-10 -10 -10 -10 -9 -9 -9 -8 -9 -9 -9 -8 -8 -8 -8 -8 -9 -8 -9 -8 -8 -8 -8 -8 -8 -8 -8 -8 -8 -7 -7 -7 -7 -7 -7 -7 -7 -7 -7 -7 -7 -7 -7 -8
-10 -10 -10 -10 -9 -9 -8 -9 -9 -9 -10 -9 -9 -9 -9 -9 -9 -9 -8 -8 -8 -8 -8 -8 -8 -8 -8 -7 -7 -7 -7 -7 -7 -7 -7 -7 -7 -7 -7 -7 -7 -7 -7 -7
-10 -10 -10 -9 -9 -9 -9 -9 -9 -9 -9 -9 -9 -9 -9 -9 -9 -9 -9 -9 -9 -8 -8 -8 -8 -8 -7 -8 -8 -7 -7 -7 -7 -7 -7 -7 -7 -7 -7 -7 -7 -8 -8 -8
-10 -9 -10 -9 -10 -9 -9 -9 -9 -9 -9 -9 -9 -9 -9 -9 -9 -8 -8 -8 -9 -9 -8 -8 -9 -8 -8 -8 -8 -8 -8 -8 -8 -8 -7 -7 -7 -6 -6 -7 -7 -7 -7 -8
-10 -9 -10 -10 -9 -10 -9 -9 -9 -9 -9 -9 -9 -9 -9 -9 -9 -9 -9 -9 -9 -9 -9 -9 -9 -8 -8 -8 -8 -8 -8 -8 -8 -8 -8 -8 -7 -7 -7 -7 -7 -8 -8 -8
-10 -10 -10 -10 -10 -10 -10 -10 -10 -10 -10 -9 -9 -9 -9 -9 -9 -9 -9 -9 -9 -9 -9 -9 -9 -8 -8 -8 -8 -8 -8 -8 -8 -8 -8 -8 -8 -8 -8 -8 -8 -8 -9 -9
-10 -10 -10 -11 -10 -10 -10 -10 -10 -10 -10 -10 -9 -9 -9 -9 -9 -9 -9 -9 -9 -9 -9 -9 -9 -8 -8 -9 -9 -9 -9 -9 -9 -8 -8 -8 -8 -8 -8 -8 -9 -9 -10 -10
Height
5925 5927 5929 5933 5933 5934 5934 5935 5936 5936 5936 5935 5933 5934 5933 5931 5928 5925 5922 5919 5916 5914 5913 5910 5908 5906 5904 5903 5904 5904 5905 5906 5906 5907 5908 5909 5911 5913 5914 5915 5916 5916 5917 5918
5925 5926 5929 5929 5930 5932 5933 5934 5937 5935 5934 5934 5934 5934 5932 5929 5927 5925 5923 5919 5915 5914 5912 5910 5908 5905 5902 5902 5902 5903 5903 5904 5905 5905 5905 5907 5909 5910 5911 5912 5913 5915 5916 5916
5923 5926 5927 5928 5929 5931 5933 5934 5935 5934 5934 5934 5934 5933 5931 5930 5927 5925 5922 5919 5915 5911 5911 5909 5907 5904 5903 5901 5899 5901 5902 5901 5902 5902 5903 5904 5906 5907 5908 5909 5911 5912 5912 5913
5922 5924 5925 5926 5928 5930 5933 5932 5931 5933 5934 5937 5934 5936 5932 5929 5927 5924 5921 5917 5913 5909 5908 5908 5906 5904 5902 5901 5899 5899 5899 5898 5897 5898 5899 5901 5902 5902 5905 5906 5908 5908 5909 5909
5922 5922 5923 5924 5927 5927 5932 5929 5930 5932 5933 5935 5934 5934 5932 5929 5927 5923 5920 5915 5911 5908 5907 5906 5904 5903 5901 5900 5899 5898 5896 5893 5891 5891 5892 5893 5896 5897 5900 5903 5904 5905 5905 5906
5920 5921 5922 5923 5924 5925 5926 5928 5930 5932 5934 5935 5934 5934 5929 5930 5926 5923 5918 5914 5910 5907 5906 5905 5903 5901 5899 5897 5897 5894 5891 5889 5886 5884 5883 5882 5876 5887 5892 5895 5899 5900 5901 5903
5917 5918 5920 5922 5922 5924 5925 5929 5934 5935 5935 5934 5931 5932 5930 5927 5924 5922 5917 5913 5910 5907 5905 5903 5901 5899 5897 5895 5892 5889 5886 5883 5879 5876 5874 5873 5875 5878 5883 5889 5893 5894 5896 5899
5916 5919 5919 5921 5921 5928 5925 5930 5935 5935 5935 5934 5929 5932 5928 5925 5922 5919 5916 5913 5909 5907 5904 5902 5900 5897 5896 5894 5892 5889 5884 5880 5876 5871 5866 5865 5867 5869 5876 5882 5886 5889 5892 5894
5915 5920 5919 5919 5921 5923 5924 5925 5930 5932 5931 5931 5931 5928 5924 5922 5919 5917 5915 5913 5909 5906 5903 5900 5899 5897 5894 5892 5890 5887 5883 5878 5873 5865 5857 5857 5859 5863 5867 5873 5879 5882 5886 5889
5913 5917 5917 5919 5920 5921 5923 5926 5927 5929 5930 5930 5928 5925 5925 5920 5917 5914 5913 5910 5907 5905 5902 5900 5898 5895 5892 5890 5888 5884 5880 5878 5873 5864 5857 5853 5855 5858 5861 5868 5874 5878 5881 5884
5910 5915 5918 5918 5919 5923 5922 5923 5924 5925 5926 5927 5927 5924 5918 5916 5914 5912 5910 5908 5906 5903 5901 5898 5896 5894 5891 5888 5886 5882 5878 5874 5871 5866 5859 5855 5854 5856 5859 5866 5871 5875 5878 5879
5910 5914 5918 5917 5916 5917 5919 5920 5922 5925 5923 5922 5920 5921 5914 5913 5911 5909 5907 5905 5902 5900 5898 5896 5893 5892 5890 5887 5884 5881 5877 5874 5870 5866 5862 5859 5859 5862 5863 5867 5870 5872 5874 5877
5907 5911 5913 5913 5915 5914 5915 5915 5916 5917 5917 5917 5916 5920 5909 5910 5908 5906 5904 5901 5899 5896 5894 5892 5890 5888 5885 5883 5880 5877 5875 5872 5871 5868 5865 5862 5860 5861 5864 5866 5867 5869 5870 5871
5905 5910 5912 5909 5906 5909 5910 5910 5910 5911 5912 5914 5914 5911 5906 5907 5905 5902 5900 5897 5895 5893 5890 5887 5885 5884 5882 5879 5877 5875 5871 5869 5868 5867 5865 5864 5863 5862 5861 5862 5864 5864 5864 5865
5903 5905 5904 5904 5904 5905 5905 5905 5904 5905 5905 5905 5906 5905 5903 5903 5900 5898 5896 5894 5891 5888 5886 5883 5880 5878 5877 5876 5875 5873 5871 5867 5864 5863 5862 5862 5860 5860 5859 5859 5860 5861 5860 5861
5898 5898 5900 5900 5900 5901 5902 5902 5900 5900 5900 5900 5899 5899 5898 5897 5895 5893 5891 5889 5886 5884 5881 5879 5877 5875 5873 5872 5870 5868 5866 5865 5863 5860 5858 5857 5857 5857 5856 5855 5853 5854 5854 5854
5893 5893 5896 5899 5895 5896 5898 5897 5895 5894 5894 5895 5895 5891 5892 5891 5890 5888 5885 5883 5881 5879 5877 5875 5873 5871 5869 5866 5864 5864 5862 5860 5859 5857 5855 5853 5852 5851 5851 5850 5850 5848 5848 5848
5885 5884 5890 5892 5889 5890 5892 5890 5889 5888 5887 5887 5887 5886 5886 5885 5884 5882 5880 5877 5876 5875 5873 5871 5869 5866 5864 5862 5859 5857 5856 5854 5852 5850 5850 5848 5847 5846 5845 5844 5844 5843 5843 5843
5880 5882 5883 5884 5885 5885 5884 5882 5881 5881 5881 5880 5880 5880 5879 5878 5877 5875 5873 5872 5871 5869 5867 5865 5863 5861 5859 5855 5852 5849 5847 5846 5845 5844 5842 5841 5840 5839 5838 5837 5837 5836 5834 5833
5875 5875 5876 5877 5876 5876 5876 5875 5874 5874 5875 5872 5873 5872 5872 5871 5871 5867 5867 5866 5864 5862 5860 5859 5857 5854 5851 5848 5845 5842 5839 5837 5836 5836 5836 5834 5832 5830 5829 5828 5827 5826 5825 5825
5867 5868 5869 5870 5868 5870 5869 5869 5868 5869 5870 5866 5865 5865 5864 5864 5864 5861 5859 5858 5856 5855 5853 5852 5849 5846 5844 5841 5838 5835 5832 5829 5827 5827 5825 5824 5823 5821 5820 5818 5817 5816 5815 5814
5861 5861 5862 5863 5862 5863 5864 5863 5862 5861 5859 5858 5858 5858 5857 5856 5855 5853 5851 5849 5848 5847 5845 5844 5842 5838 5836 5834 5831 5828 5825 5823 5821 5818 5816 5814 5814 5813 5811 5808 5807 5806 5804 5804
5853 5854 5854 5856 5854 5855 5855 5854 5853 5853 5852 5851 5851 5850 5849 5847 5845 5844 5842 5840 5839 5838 5836 5834 5832 5829 5827 5825 5822 5819 5816 5813 5812 5810 5808 5806 5805 5803 5801 5800 5798 5795 5793 5792
5844 5845 5846 5847 5846 5846 5846 5845 5845 5845 5844 5844 5843 5842 5840 5839 5836 5834 5833 5831 5829 5828 5827 5826 5824 5822 5818 5817 5814 5810 5808 5804 5802 5801 5799 5797 5795 5793 5792 5790 5787 5785 5782 5780
5834 5836 5837 5838 5837 5838 5837 5837 5837 5836 5836 5836 5835 5833 5832 5830 5827 5825 5823 5821 5820 5819 5817 5816 5814 5812 5809 5806 5803 5800 5797 5795 5794 5791 5788 5786 5784 5782 5780 5777 5775 5773 5771 5768
5826 5827 5828 5829 5828 5830 5828 5829 5828 5828 5827 5827 5826 5824 5823 5821 5818 5816 5814 5812 5811 5808 5806 5804 5803 5801 5798 5795 5792 5789 5786 5784 5782 5780 5778 5775 5773 5770 5767 5764 5763 5761 5760 5757
Wind_Speed
15 15 12 12 5 2 1 2 6 7 4 7 6 5 2 5 9 14 16 14 13 12 10 12 12 16 17 8 15 16 16 18 18 19 19 20 20 19 18 17 15 14 11 9
14 10 11 7 5 2 3 4 6 6 6 5 8 7 4 5 10 17 15 18 14 14 11 10 10 11 6 9 11 12 16 16 18 20 22 21 21 21 22 20 19 16 14 12
14 11 7 5 4 3 4 6 8 4 1 5 8 6 4 5 12 9 17 21 20 12 8 9 10 13 10 8 6 10 12 14 16 20 19 22 22 24 24 23 21 18 16 15
10 9 6 5 4 3 2 11 4 3 1 6 5 2 7 6 3 13 20 24 21 14 5 8 10 13 10 10 9 8 11 15 17 20 22 21 24 26 27 25 22 20 19 18
8 7 7 5 6 4 9 7 5 7 3 3 6 4 8 3 9 16 23 21 17 9 8 8 8 9 11 13 12 12 14 16 15 21 24 27 27 27 27 25 25 22 20 19
10 9 6 6 4 4 4 3 7 8 5 3 7 3 7 9 13 18 19 20 17 11 7 8 6 7 10 12 13 14 16 16 19 22 26 31 38 35 29 27 26 24 21 20
11 8 7 5 3 1 3 4 0 4 4 6 13 7 13 10 11 12 17 18 14 10 10 11 9 8 8 10 14 16 18 22 18 18 21 24 32 40 34 33 30 26 23 19
10 9 6 4 3 7 8 9 7 5 6 6 14 6 13 8 10 10 12 15 11 10 12 11 13 13 12 13 13 16 18 24 22 18 19 22 27 28 35 31 33 27 23 21
13 13 10 5 3 3 7 4 12 7 7 4 8 9 7 11 11 9 9 11 10 11 11 16 14 13 14 14 15 17 19 20 23 26 16 19 21 25 33 35 38 28 24 23
17 11 12 10 5 5 7 9 1 2 5 4 8 11 9 11 10 10 10 10 10 11 12 16 16 15 15 17 18 18 19 21 22 21 11 12 25 28 36 39 34 28 27 26
17 14 14 11 7 9 6 5 6 8 9 7 7 8 19 12 11 11 12 11 12 13 14 17 17 19 18 18 20 20 21 22 22 19 13 6 9 23 36 35 28 28 25 24
17 13 8 12 15 13 12 13 7 8 10 12 14 10 17 14 11 11 14 16 17 17 19 19 21 23 20 20 21 21 19 20 20 19 17 9 3 5 19 19 20 20 20 24
21 19 10 13 15 15 13 14 16 15 14 13 13 11 24 14 11 12 16 18 20 22 21 21 23 24 24 20 22 23 22 20 18 17 17 16 14 6 8 11 12 21 25 25
22 15 16 12 15 8 16 13 15 14 14 14 13 15 22 14 14 14 18 20 22 24 24 25 26 23 23 19 27 25 26 24 21 18 17 14 12 12 14 9 13 14 13 27
20 18 21 21 18 15 14 15 15 13 14 15 15 14 21 16 16 17 20 23 24 25 25 26 28 28 25 27 27 27 26 26 24 21 20 17 16 15 15 14 15 16 19 20
20 20 18 17 18 17 13 12 16 17 18 16 16 18 17 17 19 21 24 25 25 24 26 28 29 30 30 29 29 29 26 22 21 21 21 20 20 20 20 21 21 21 23 20
23 22 20 15 23 21 18 19 21 21 20 19 20 24 21 21 22 23 25 25 25 25 27 29 30 31 30 31 30 27 25 25 24 24 24 23 22 22 22 23 24 25 25 25
26 15 17 20 29 27 24 26 26 27 25 24 24 24 24 23 24 24 24 25 25 27 30 30 28 27 27 28 29 29 28 28 29 28 26 25 24 25 25 26 26 26 26 27
15 18 20 24 23 24 28 25 24 24 24 25 26 25 25 25 25 25 24 25 27 29 29 26 25 27 29 31 32 32 32 30 30 30 30 29 28 27 27 28 29 29 29 29
24 25 24 24 24 24 23 20 22 23 21 26 25 27 26 26 23 28 26 27 29 28 26 25 28 30 30 31 32 32 32 32 32 30 28 29 30 32 33 33 34 34 35 35
21 22 23 25 27 25 20 20 22 21 22 25 26 28 27 25 26 28 28 28 29 27 25 27 30 32 30 30 31 32 33 34 35 34 33 32 33 34 35 36 37 38 39 40
24 24 25 24 26 26 22 22 24 25 26 28 28 28 28 28 29 30 31 31 29 28 28 30 30 30 31 33 33 33 34 33 33 33 34 33 33 33 34 35 36 37 37 38
29 27 28 26 30 25 25 25 25 26 27 28 27 27 29 30 31 32 32 34 32 31 31 31 32 35 36 35 35 35 35 35 33 33 34 34 34 36 36 37 37 39 40 39
28 28 28 26 29 29 28 27 28 28 28 28 28 29 31 32 34 35 34 34 33 33 34 35 36 37 37 36 36 36 35 36 35 35 35 36 37 37 38 38 38 39 41 43
31 27 28 28 30 29 28 28 27 27 28 29 30 31 33 34 37 37 37 36 35 36 38 40 40 39 38 37 38 38 37 35 35 36 37 38 39 40 40 40 40 41 41 41
28 30 29 29 30 28 29 27 27 28 29 30 32 34 36 38 39 39 38 38 38 40 41 42 41 39 38 38 38 38 38 37 36 37 38 38 39 40 41 41 41 38 37 39
Wind_Direction
177 175 167 207 158 126 214 324 310 332 342 321 336 35 185 307 333 329 318 284 279 286 304 297 304 319 307 270 260 254 245 234 237 234 235 238 238 239 232 230 231 231 230 241
182 179 189 147 122 108 273 284 290 325 320 323 2 56 3 304 330 341 356 359 305 283 297 309 326 345 7 334 290 257 255 252 250 243 236 237 241 239 237 235 236 235 237 245
179 189 162 142 129 133 281 258 255 254 341 356 22 360 299 329 356 2 8 4 356 325 285 315 337 334 323 348 347 267 263 266 261 251 243 237 239 242 240 240 240 237 233 237
188 181 167 162 173 194 227 266 251 201 208 302 13 36 19 343 339 354 356 353 355 6 352 330 336 331 334 337 326 294 277 271 259 255 246 249 242 238 244 241 241 232 233 236
193 199 201 193 211 211 215 255 212 184 248 325 348 63 339 67 353 344 347 343 356 354 0 346 335 327 335 336 335 311 304 298 281 251 250 245 247 249 239 241 240 238 233 238
211 214 225 199 213 233 247 266 191 213 266 253 264 72 313 315 315 335 334 336 347 358 324 330 333 341 335 336 334 329 324 317 296 276 260 250 246 234 238 233 237 237 238 238
212 216 208 206 187 295 248 202 214 267 250 249 252 288 283 324 326 332 331 336 339 358 348 334 337 332 312 320 330 332 330 328 306 295 273 258 256 237 232 225 232 232 239 244
205 216 226 183 183 227 266 212 202 232 249 257 300 281 274 352 347 328 333 342 347 327 339 334 346 342 327 320 316 322 333 333 321 313 275 254 244 236 214 217 230 232 236 244
187 197 203 188 178 189 273 200 204 221 257 271 258 300 297 338 328 334 331 334 343 337 336 336 352 343 348 341 331 323 329 332 334 329 302 242 235 226 217 209 226 228 234 240
191 191 185 209 221 175 141 229 303 247 243 250 279 321 277 308 325 331 322 329 335 332 323 329 337 345 349 351 350 341 328 333 347 342 339 223 239 228 226 212 218 225 232 239
188 173 212 215 199 221 239 260 242 220 226 232 286 287 279 296 313 312 314 318 322 314 314 311 324 327 329 338 345 346 340 338 343 354 359 27 204 219 205 205 218 226 235 242
191 187 197 207 229 238 246 224 238 239 283 276 259 280 275 288 300 312 314 316 314 308 304 308 313 319 316 319 329 335 337 341 343 346 355 2 47 146 207 214 223 232 243 248
199 204 215 247 258 257 244 252 253 257 260 265 265 262 272 274 282 297 301 308 310 306 304 304 306 310 318 312 319 326 327 334 336 338 337 345 341 331 249 240 276 251 242 249
207 211 208 233 204 221 267 266 263 261 263 266 270 259 268 263 276 285 296 304 303 300 301 303 303 300 302 294 316 319 318 319 321 324 323 324 327 328 330 314 287 274 273 257
209 219 222 225 238 248 267 269 279 272 265 262 258 244 252 262 273 285 294 295 295 295 297 296 297 297 293 296 307 314 313 310 312 312 311 310 311 306 301 293 290 291 306 315
222 236 234 253 257 264 268 282 288 280 273 272 268 266 263 270 279 285 288 289 288 289 289 289 291 294 298 301 305 308 307 301 304 309 308 304 300 298 301 300 300 300 299 300
234 237 239 253 264 275 266 287 285 279 266 266 266 263 268 275 281 286 287 284 282 284 285 288 291 297 301 303 305 305 302 299 297 297 298 299 297 296 294 293 294 298 299 299
227 226 256 247 263 271 267 282 276 269 266 262 263 265 270 277 284 286 284 280 279 282 285 288 293 298 302 303 303 302 297 293 293 293 290 289 288 289 289 290 289 289 289 288
250 261 267 264 271 276 283 274 263 263 261 260 266 271 275 281 284 282 280 280 281 281 282 286 292 296 299 303 304 303 299 294 287 284 284 285 284 283 284 284 285 286 286 287
264 266 270 277 280 282 275 273 270 266 270 265 267 270 275 278 278 280 278 280 281 279 279 283 290 296 299 302 301 299 295 291 290 287 285 284 285 287 287 285 284 283 283 284
273 261 265 273 277 277 274 274 270 267 256 269 270 273 276 279 279 281 284 286 283 281 277 284 291 293 293 298 300 298 295 293 289 288 289 289 289 287 286 286 287 287 287 287
269 263 276 270 271 271 274 268 267 266 268 270 270 271 276 280 281 284 285 286 283 278 280 287 289 290 292 296 297 297 297 292 290 289 290 289 288 287 289 290 289 288 287 286
264 265 267 268 270 272 269 267 266 267 268 270 272 274 279 281 286 288 288 285 282 277 279 291 297 295 294 293 295 295 295 293 290 289 290 289 288 287 287 287 287 288 286 285
262 264 264 266 265 268 266 265 264 262 265 269 272 276 282 286 289 292 290 286 282 277 278 284 287 287 289 291 290 288 290 291 291 289 289 288 287 287 285 285 284 283 284 284
264 264 264 264 266 266 268 268 268 269 271 274 278 282 285 287 286 286 286 283 281 278 276 278 282 284 285 287 288 288 288 288 288 288 289 288 287 287 287 286 285 284 282 279
258 259 261 261 264 264 266 266 270 272 275 278 280 282 282 283 282 281 280 279 277 275 275 278 280 280 283 287 287 286 287 288 289 288 289 288 286 287 286 286 284 282 276 276